Date_and_time,latitude,longitude,wind_speed,RelWindDirFrom,WindDirFrom,air_pressure,air_temperature,relative_humidity,Temp,platform_speed_wrt_ground,air_pressure_at_mean_sea_level,platform_orientation
2018-08-17 23:40,50.6304116666667,-96.9807483333333,10.2,13.5,135,989.84,22.8,69,21.20,0.0,1015.59,224.6
2018-08-17 23:50,50.6304433333333,-96.9807683333333,12.2,14.3,145,989.70,23.0,59,21.21,0.0,1015.44,224.6
2018-08-18 00:00,50.630435,-96.980765,9.9,12.3,151,989.70,22.8,64,21.21,0.0,1015.45,360.0
2018-08-18 00:10,50.6304366666667,-96.98076,8.0,9.8,164,989.65,22.4,69,21.21,0.0,1015.42,360.0
2018-08-18 00:20,50.6304383333333,-96.9807633333333,8.9,10.3,164,989.48,22.3,71,21.24,0.0,1015.25,360.0
2018-08-18 00:30,50.6304383333333,-96.9807633333333,7.9,9.6,165,989.47,22.3,72,21.27,0.0,1015.24,360.0
2018-08-18 00:40,50.63044,-96.980765,8.4,10.3,166,989.49,22.2,73,21.32,0.0,1015.26,360.0
2018-08-18 00:50,50.63044,-96.9807666666667,8.2,9.6,163,989.38,22.1,74,21.34,0.0,1015.16,360.0
2018-08-18 01:00,50.6304433333333,-96.9807683333333,8.3,10.1,162,989.30,22.0,77,21.43,0.0,1015.07,167.4
2018-08-18 01:10,50.63046,-96.9807583333333,9.2,10.5,169,989.29,22.0,75,21.43,0.0,1015.07,167.4
2018-08-18 01:20,50.6304233333333,-96.980775,8.4,9.9,167,989.24,22.0,74,21.41,0.0,1015.00,167.4
2018-08-18 01:30,50.6304566666667,-96.980765,8.7,10.9,160,989.11,21.8,79,21.40,0.0,1014.88,167.4
2018-08-18 01:40,50.630445,-96.9807733333333,9.0,11.3,160,989.03,21.6,79,21.42,0.0,1014.79,167.4
2018-08-18 01:50,50.630445,-96.980775,9.1,11.2,159,988.93,21.5,83,21.41,0.0,1014.71,167.4
2018-08-18 02:00,50.6304433333333,-96.98077,9.1,11.9,159,988.86,21.3,85,21.47,0.0,1014.66,270.0
2018-08-18 02:10,50.6304416666667,-96.9807533333333,9.4,11.3,160,988.76,21.2,86,21.46,0.0,1014.57,270.0
2018-08-18 02:20,50.6304466666667,-96.9807683333333,10.2,13.2,160,988.67,21.3,81,21.46,0.0,1014.47,270.0
2018-08-18 02:30,50.630445,-96.9807616666667,11.1,13.4,166,988.77,21.5,77,21.45,0.0,1014.57,270.0
2018-08-18 02:40,50.630445,-96.9807633333333,10.7,13.3,164,988.77,21.5,75,21.44,0.0,1014.57,270.0
2018-08-18 02:50,50.630445,-96.9807666666667,11.1,14.1,161,988.69,21.4,75,21.42,0.0,1014.51,270.0
2018-08-18 03:00,50.6304466666667,-96.9807666666667,12.2,15.8,158,988.45,21.2,76,21.45,0.0,1014.26,360.0
2018-08-18 03:10,50.6304466666667,-96.9807666666667,13.0,17.2,165,988.31,21.3,74,21.45,0.0,1014.11,360.0
2018-08-18 03:20,50.6304466666667,-96.980765,15.2,18.0,167,988.13,21.4,69,21.45,0.0,1013.93,360.0
2018-08-18 03:30,50.630445,-96.980765,17.3,21.4,170,988.05,21.6,65,21.41,0.0,1013.86,360.0
2018-08-18 03:40,50.6304466666667,-96.9807633333333,16.1,19.5,170,988.01,21.4,66,21.39,0.0,1013.83,360.0
2018-08-18 03:50,50.630435,-96.980765,13.6,16.4,171,988.03,21.2,66,21.36,0.0,1013.86,360.0
2018-08-18 04:00,50.63044,-96.9807583333333,12.7,15.2,173,987.95,21.2,65,21.35,0.0,1013.79,90.0
2018-08-18 04:10,50.6304433333333,-96.9807616666667,13.6,16.3,173,987.79,21.1,65,21.37,0.0,1013.62,90.0
2018-08-18 04:20,50.6304416666667,-96.9807633333333,13.3,16.1,175,987.67,21.0,65,21.37,0.0,1013.49,90.0
2018-08-18 04:30,50.630445,-96.980765,13.9,16.9,176,987.50,20.8,64,21.35,0.0,1013.33,90.0
2018-08-18 04:40,50.630445,-96.9807666666667,14.1,16.1,176,987.40,20.6,64,21.35,0.0,1013.24,90.0
2018-08-18 04:50,50.6304466666667,-96.9807666666667,13.3,16.0,177,987.36,20.5,64,21.32,0.0,1013.21,90.0
2018-08-18 05:00,50.630445,-96.9807666666667,12.4,15.0,180,987.42,20.4,64,21.31,0.0,1013.28,0.0
2018-08-18 05:10,50.630445,-96.9807683333333,10.1,12.9,182,987.64,20.4,63,21.31,0.0,1013.49,0.0
2018-08-18 05:20,50.6304433333333,-96.9807683333333,7.2,9.3,187,987.86,20.3,62,21.30,0.0,1013.72,0.0
2018-08-18 05:30,50.6304433333333,-96.9807666666667,6.2,8.0,185,987.92,20.2,63,21.29,0.0,1013.79,0.0
2018-08-18 05:40,50.6304416666667,-96.9807683333333,5.1,6.1,188,987.97,20.0,64,21.29,0.0,1013.86,0.0
2018-08-18 05:50,50.6304416666667,-96.9807666666667,4.6,8.1,202,988.05,20.0,61,21.28,0.0,1013.94,0.0
2018-08-18 06:00,50.6304416666667,-96.9807666666667,6.1,9.1,196,988.14,20.0,60,21.27,0.0,1014.04,360.0
2018-08-18 06:10,50.6304416666667,-96.9807683333333,7.9,11.5,196,988.20,19.9,62,21.27,0.0,1014.12,360.0
2018-08-18 06:20,50.6304416666667,-96.9807683333333,8.7,11.0,183,988.08,19.4,65,21.28,0.0,1014.02,360.0
2018-08-18 06:30,50.6304416666667,-96.9807683333333,6.8,8.7,189,988.09,18.9,67,21.27,0.0,1014.05,360.0
2018-08-18 06:40,50.6304416666667,-96.98077,7.1,9.5,182,988.05,18.7,68,21.26,0.0,1014.03,360.0
2018-08-18 06:50,50.6304416666667,-96.98077,7.1,9.6,184,987.99,18.6,69,21.25,0.0,1013.98,360.0
2018-08-18 07:00,50.63044,-96.98077,7.2,8.7,181,987.93,18.4,70,21.25,0.0,1013.93,270.0
2018-08-18 07:10,50.63044,-96.9807716666667,9.3,10.7,176,987.82,18.5,68,21.24,0.0,1013.81,270.0
2018-08-18 07:20,50.6304416666667,-96.9807716666667,7.9,9.8,165,987.70,18.9,71,21.23,0.0,1013.68,270.0
2018-08-18 07:30,50.6304416666667,-96.9807716666667,10.3,14.0,163,987.58,19.9,68,21.23,0.0,1013.52,270.0
2018-08-18 07:40,50.63044,-96.9807716666667,11.7,13.6,168,987.49,20.0,68,21.22,0.0,1013.42,270.0
2018-08-18 07:50,50.63044,-96.9807716666667,11.4,13.3,172,987.41,19.9,68,21.20,0.0,1013.35,270.0
2018-08-18 08:00,50.63044,-96.9807716666667,11.2,13.0,170,987.27,19.7,71,21.18,0.0,1013.22,270.0
2018-08-18 08:10,50.6304383333333,-96.9807716666667,11.9,15.3,172,987.10,19.6,71,21.16,0.0,1013.07,270.0
2018-08-18 08:20,50.6304383333333,-96.9807716666667,12.1,14.2,173,986.94,19.6,72,21.13,0.0,1012.93,270.0
2018-08-18 08:30,50.6304183333333,-96.9807766666667,11.7,13.9,174,986.75,19.5,74,21.11,0.0,1012.74,270.0
2018-08-18 08:40,50.6304333333333,-96.9807716666667,12.5,15.7,175,986.61,19.5,74,21.10,0.0,1012.60,270.0
2018-08-18 08:50,50.630435,-96.9807733333333,13.9,17.5,171,986.44,19.5,75,21.08,0.0,1012.43,270.0
2018-08-18 09:00,50.6304333333333,-96.9807733333333,13.5,16.1,177,986.50,19.5,75,21.07,0.0,1012.49,221.3
2018-08-18 09:10,50.6304316666667,-96.9807733333333,12.0,15.3,178,986.52,19.3,74,21.05,0.0,1012.50,221.3
2018-08-18 09:20,50.63043,-96.9807733333333,9.8,12.6,181,986.57,19.0,73,21.02,0.0,1012.52,221.3
2018-08-18 09:30,50.6304316666667,-96.9807733333333,9.6,12.4,180,986.47,18.8,73,21.01,0.0,1012.43,221.3
2018-08-18 09:40,50.6304316666667,-96.9807716666667,9.6,12.4,182,986.50,18.6,74,21.02,0.0,1012.48,221.3
2018-08-18 09:50,50.63043,-96.980775,10.8,13.4,180,986.43,18.5,73,21.03,0.0,1012.42,221.3
2018-08-18 10:00,50.6304316666667,-96.9807733333333,12.4,14.9,174,986.22,18.4,73,21.03,0.0,1012.21,194.5
2018-08-18 10:10,50.6304316666667,-96.9807733333333,12.2,14.7,172,986.10,18.4,76,21.01,0.0,1012.09,194.5
2018-08-18 10:20,50.6304466666667,-96.9807783333333,12.3,16.5,176,986.07,18.4,76,21.00,0.0,1012.06,194.5
2018-08-18 10:30,50.630425,-96.9807783333333,12.5,14.6,175,986.00,18.3,77,20.98,0.0,1011.98,194.5
2018-08-18 10:40,50.63043,-96.980775,13.1,14.9,174,985.98,18.3,77,20.98,0.0,1011.97,194.5
2018-08-18 10:50,50.63043,-96.9807716666667,13.4,15.6,176,986.01,18.3,77,20.97,0.0,1012.00,194.5
2018-08-18 11:00,50.6304283333333,-96.9807733333333,10.4,13.2,181,986.17,18.1,79,20.96,0.0,1012.19,360.0
2018-08-18 11:10,50.63043,-96.9807733333333,9.6,11.8,180,986.26,17.9,80,20.94,0.0,1012.29,360.0
2018-08-18 11:20,50.63043,-96.9807716666667,9.7,11.5,180,986.23,17.7,81,20.93,0.0,1012.29,360.0
2018-08-18 11:30,50.63043,-96.9807733333333,9.6,11.5,181,986.13,17.7,81,20.91,0.0,1012.19,360.0
2018-08-18 11:40,50.6304283333333,-96.980795,9.8,11.4,180,985.99,17.8,81,20.92,0.0,1012.05,360.0
2018-08-18 11:50,50.6304266666667,-96.9807866666667,9.1,11.2,183,985.80,17.9,80,20.94,0.0,1011.85,360.0
2018-08-18 12:00,50.6304333333333,-96.9808116666667,9.5,12.5,183,985.71,18.2,79,20.93,0.0,1011.74,270.0
2018-08-18 12:10,50.6304316666667,-96.980785,10.0,15.9,188,985.67,18.5,78,20.92,0.0,1011.69,270.0
2018-08-18 12:20,50.6304316666667,-96.9807816666667,12.5,16.2,189,985.63,18.7,76,20.91,0.0,1011.65,270.0
2018-08-18 12:30,50.630435,-96.9807816666667,13.4,18.2,186,985.50,18.7,76,20.91,0.0,1011.51,270.0
2018-08-18 12:40,50.6304333333333,-96.98078,13.4,16.9,190,985.52,18.8,76,20.87,0.0,1011.53,270.0
2018-08-18 12:50,50.6304333333333,-96.98078,14.6,19.2,188,985.48,18.9,75,20.85,0.0,1011.49,270.0
2018-08-18 13:00,50.6304483333333,-96.9807566666667,15.2,19.5,187,985.37,18.8,76,20.83,0.0,1011.40,32.5
2018-08-18 13:10,50.6304466666667,-96.9807616666667,15.4,19.6,186,985.22,18.8,76,20.82,0.0,1011.25,32.5
2018-08-18 13:20,50.630445,-96.9807633333333,14.2,18.8,187,985.13,18.8,76,20.81,0.0,1011.16,32.5
2018-08-18 13:30,50.630445,-96.980765,14.5,18.6,188,985.01,18.8,76,20.81,0.0,1011.03,32.5
2018-08-18 13:40,50.630445,-96.9807683333333,13.5,16.5,186,984.97,19.0,75,20.80,0.0,1010.97,32.5
2018-08-18 13:50,50.630445,-96.9807666666667,12.9,16.0,186,984.88,19.2,75,20.79,0.0,1010.86,32.5
2018-08-18 14:00,50.630445,-96.980765,12.9,17.3,186,984.80,19.4,74,20.78,0.0,1010.76,23.5
2018-08-18 14:10,50.6304466666667,-96.980765,14.1,18.6,187,984.72,19.6,72,20.76,0.0,1010.65,23.5
2018-08-18 14:20,50.6304466666667,-96.980765,14.5,19.4,189,984.64,19.8,72,20.76,0.0,1010.56,23.5
2018-08-18 14:30,50.6304466666667,-96.980765,13.8,18.2,186,984.56,20.0,72,20.75,0.0,1010.47,23.5
2018-08-18 14:40,50.6304466666667,-96.980765,14.0,17.7,186,984.37,20.2,70,20.75,0.0,1010.26,23.5
2018-08-18 14:50,50.6304466666667,-96.980765,12.7,17.0,189,984.32,20.5,69,20.75,0.0,1010.20,23.5
2018-08-18 15:00,50.6304366666667,-96.980785,12.2,16.3,189,984.29,20.8,68,20.76,0.0,1010.16,73.2
2018-08-18 15:10,50.6304366666667,-96.9807833333333,13.4,17.7,188,984.10,21.1,67,20.76,0.0,1009.95,73.2
2018-08-18 15:20,50.6304233333333,-96.9807766666667,13.2,17.7,188,983.94,21.5,64,20.76,0.0,1009.76,73.2
2018-08-18 15:30,50.6304216666667,-96.9807683333333,14.3,19.6,185,983.76,21.8,63,20.77,0.0,1009.55,73.2
2018-08-18 15:40,50.6304216666667,-96.9807516666667,13.8,20.1,189,983.74,22.3,61,20.78,0.0,1009.50,73.2
2018-08-18 15:50,50.63043,-96.9807633333333,13.7,21.0,194,983.72,22.8,58,20.79,0.0,1009.46,73.2
2018-08-18 16:00,50.6304316666667,-96.980765,12.7,18.7,191,983.63,23.1,58,20.80,0.0,1009.34,203.5
2018-08-18 16:10,50.6304316666667,-96.9807683333333,13.6,18.4,192,983.54,23.5,56,20.81,0.0,1009.22,203.5
2018-08-18 16:20,50.6304333333333,-96.98077,11.6,16.5,196,983.48,23.8,55,20.83,0.0,1009.13,203.5
2018-08-18 16:30,50.6304333333333,-96.98077,10.5,13.9,187,983.35,23.9,55,20.86,0.0,1008.99,203.5
2018-08-18 16:40,50.6304416666667,-96.9807783333333,11.3,15.5,182,983.30,24.0,55,20.89,0.0,1008.92,203.5
2018-08-18 16:50,50.630425,-96.9807816666667,12.8,16.6,185,983.27,24.2,53,20.91,0.0,1008.87,203.5
2018-08-18 17:00,50.6304283333333,-96.98077,10.5,15.0,192,983.47,24.6,53,20.94,0.0,1009.05,161.1
2018-08-18 17:10,50.6304333333333,-96.9807616666667,10.3,16.3,192,983.40,24.9,52,20.97,0.0,1008.94,161.1
2018-08-18 17:20,50.630435,-96.9807633333333,10.6,13.9,199,983.32,25.4,49,21.01,0.0,1008.83,161.1
2018-08-18 17:30,50.6304333333333,-96.9807616666667,11.1,16.3,197,983.23,25.6,48,21.04,0.0,1008.70,161.1
2018-08-18 17:40,50.6304316666667,-96.9807616666667,10.0,13.3,200,983.13,25.7,48,21.07,0.0,1008.58,161.1
2018-08-18 17:50,50.6304466666667,-96.98079,9.0,12.8,195,983.09,25.7,48,21.08,0.0,1008.52,161.1
2018-08-18 18:00,50.63044,-96.980785,9.0,13.1,207,983.32,25.5,49,21.08,0.0,1008.75,360.0
2018-08-18 18:10,50.6304416666667,-96.9807816666667,9.5,15.1,206,983.31,25.7,48,21.08,0.0,1008.72,360.0
2018-08-18 18:20,50.6304416666667,-96.9807816666667,8.4,11.9,191,982.86,25.5,50,21.08,0.0,1008.26,360.0
2018-08-18 18:30,50.63044,-96.9807816666667,8.2,13.0,187,982.75,25.6,49,21.08,0.0,1008.14,360.0
2018-08-18 18:40,50.6304416666667,-96.9807816666667,12.4,15.3,181,982.45,25.6,50,21.08,0.0,1007.83,360.0
2018-08-18 18:50,50.63044,-96.9807816666667,9.2,13.2,192,982.38,25.7,49,21.09,0.0,1007.73,360.0
2018-08-18 19:00,50.6304416666667,-96.9807816666667,10.3,14.7,187,982.22,25.7,49,21.10,0.0,1007.55,304.8
2018-08-18 19:10,50.63044,-96.98078,11.7,14.5,185,982.06,25.5,50,21.10,0.0,1007.37,304.8
2018-08-18 19:20,50.63044,-96.98078,10.4,12.7,182,982.11,25.5,51,21.11,0.0,1007.42,304.8
2018-08-18 19:30,50.630435,-96.9807816666667,8.8,12.5,153,981.72,25.0,56,21.11,0.0,1007.03,304.8
2018-08-18 19:40,50.630445,-96.9807816666667,1.8,9.3,184,981.74,24.5,59,21.12,0.0,1007.07,304.8
2018-08-18 19:50,50.6304433333333,-96.9807766666667,0.9,10.1,219,981.96,24.9,54,21.08,0.0,1007.29,304.8
2018-08-18 20:00,50.6304433333333,-96.980775,4.1,7.2,206,982.00,25.6,50,21.12,0.0,1007.30,336.5
2018-08-18 20:10,50.630435,-96.9807983333333,9.3,12.6,182,981.68,25.7,50,21.12,0.0,1006.97,336.5
2018-08-18 20:20,50.6304316666667,-96.980785,7.8,14.9,192,981.86,25.3,53,21.12,0.0,1007.16,336.5
2018-08-18 20:30,50.6304233333333,-96.9807833333333,3.6,6.0,189,981.85,25.2,54,21.12,0.0,1007.16,336.5
2018-08-18 20:40,50.63043,-96.9807683333333,3.9,7.4,223,981.96,25.5,54,21.11,0.0,1007.27,336.5
2018-08-18 20:50,50.6304333333333,-96.9807716666667,3.4,6.3,178,981.96,25.4,56,21.13,0.0,1007.26,336.5
2018-08-18 21:00,50.630455,-96.9807816666667,4.8,7.6,317,982.37,25.6,56,21.12,0.0,1007.69,38.0
2018-08-18 21:10,50.6304516666667,-96.980775,1.5,6.0,320,982.30,25.9,56,21.11,0.0,1007.60,38.0
2018-08-18 21:20,50.6304466666667,-96.980775,6.9,9.1,116,981.60,24.8,69,21.12,0.0,1006.95,38.0
2018-08-18 21:30,50.6304466666667,-96.9807766666667,8.7,9.9,139,981.26,23.9,63,21.08,0.0,1006.66,38.0
2018-08-18 21:40,50.6304433333333,-96.9807766666667,8.5,9.5,143,981.02,24.2,64,21.05,0.0,1006.39,38.0
2018-08-18 21:50,50.6304433333333,-96.9807766666667,8.1,9.6,150,980.85,23.9,65,21.03,0.0,1006.19,38.0
2018-08-18 22:00,50.6304216666667,-96.9807683333333,7.1,9.7,170,980.90,24.0,67,21.01,0.0,1006.24,142.3
2018-08-18 22:10,50.6304466666667,-96.980785,1.9,4.8,223,980.99,24.4,66,21.05,0.0,1006.33,142.3
2018-08-18 22:20,50.63043,-96.98077,1.1,4.9,352,980.90,25.4,62,21.03,0.0,1006.20,142.3
2018-08-18 22:30,50.6304616666667,-96.9807783333333,1.8,3.9,22,980.78,26.1,59,21.03,0.0,1006.03,142.3
2018-08-18 22:40,50.6304433333333,-96.980765,1.3,5.5,122,980.84,27.0,57,21.03,0.0,1006.06,142.3
2018-08-18 22:50,50.6304416666667,-96.980765,5.4,7.8,354,980.89,26.1,61,21.03,0.0,1006.14,142.3
2018-08-18 23:00,50.6304416666667,-96.9807683333333,8.0,11.4,348,980.92,24.9,63,21.00,0.0,1006.21,90.0
2018-08-18 23:10,50.63044,-96.9807666666667,7.1,10.4,327,981.02,25.3,61,21.02,0.0,1006.34,90.0
2018-08-18 23:20,50.6304283333333,-96.98078,5.8,8.9,325,980.99,26.1,57,21.18,0.0,1006.32,90.0
2018-08-18 23:30,50.6304383333333,-96.9807683333333,6.3,10.5,337,980.91,26.4,57,21.17,0.0,1006.20,90.0
2018-08-18 23:40,50.6304383333333,-96.98077,5.2,7.8,349,980.93,26.3,60,21.10,0.0,1006.25,90.0
2018-08-18 23:50,50.6304516666667,-96.9807766666667,5.7,6.9,32,981.02,23.6,78,21.13,0.0,1006.44,90.0
